Home > Time Zones > World Clock > Weather > Iran > Tabriz > Past weeks

Flag for Iran Weather past 2 weeks in Tabriz, Iran

Now
79 °F

Passing clouds.


Feels Like: 79 °F
Forecast: 57 / 81 °F
Wind: 14 mph from East

Location: Tabriz Airport

Current Time: Sep 1, 2015 at 5:16:00 PM

Latest Report: Sep 1, 2015 at 4:30 PM


Visibility: N/A

Pressure: 30.09 "Hg (25.68 "Hg at 1388m altitude)

Humidity: 34%

Dew point: 48 °F

Location of TabrizLocation

Historic Weather in Tabriz — Graph

°F

Tabriz temperature yesterday

Maximum temperature yesterday: 79 °F (at 1:00 PM)
Minimum temperature yesterday: 64 °F (at 2:00 AM)
Average temperature yesterday: 71 °F

Past Weeks' High & Low Weather Summary

 TemperatureHumidityPressure
High99 °F (Aug 19, 5:30 PM)94% (Aug 29, 9:30 PM)30.24 "Hg (Aug 29, 9:30 PM)
Low55 °F (Aug 29, 9:00 PM)9% (Aug 20, 4:00 PM)29.80 "Hg (Aug 24, 5:00 PM)
Average75 °F45%30.04 "Hg
* Reported Aug 17 3:30 PM — Sep 1 4:00 PM, Tabriz, Weather by CustomWeather, © 2015

Note: Actual official high and low records may vary slightly from our data, if they occured in-between our weather recording intervals... More about our weather records

Advertising

Tabriz weather history for previous 24 hours

 ConditionsComfort  
Time TempWeatherWind HumidityBarometerVisibility
4:00 PM
Tue, Sep 1
79 °FPassing clouds.9 mph32%30.07 "HgN/A
3:30 PM77 °FPassing clouds.9 mph34%30.07 "HgN/A
3:00 PM77 °FScattered clouds.9 mph34%30.09 "HgN/A
2:30 PM77 °FScattered clouds.9 mph36%30.09 "HgN/A
2:00 PM77 °FScattered clouds.12 mph39%30.09 "HgN/A
1:30 PM77 °FScattered clouds.9 mph34%30.09 "HgN/A
1:00 PM75 °FScattered clouds.9 mph36%30.09 "HgN/A
12:30 PM73 °FPassing clouds.18 mph36%30.09 "HgN/A
12:00 PM75 °FPassing clouds.12 mph39%30.09 "HgN/A
11:30 AM73 °FPassing clouds.14 mph41%30.09 "HgN/A
11:00 AM72 °FPassing clouds.16 mph44%30.09 "HgN/A
10:30 AM72 °FPassing clouds.14 mph41%30.09 "HgN/A
10:00 AM70 °FPassing clouds.5 mph46%30.09 "HgN/A
9:30 AM70 °FScattered clouds.7 mph46%30.09 "HgN/A
9:00 AM68 °FPassing clouds.2 mph53%30.07 "HgN/A
8:00 AM63 °FPassing clouds.7 mph64%30.04 "HgN/A
7:00 AM64 °FPassing clouds.5 mph56%30.04 "HgN/A
6:30 AM64 °FPassing clouds.7 mph56%30.04 "HgN/A
6:00 AM64 °FPassing clouds.14 mph60%30.04 "HgN/A
5:30 AM66 °FPassing clouds.9 mph56%30.07 "HgN/A
5:00 AM66 °FThundershowers. Passing clouds.9 mph56%30.07 "HgN/A
4:30 AM66 °FThundershowers. Passing clouds.7 mph56%30.07 "HgN/A
4:00 AM66 °FThundershowers. Passing clouds.12 mph56%30.04 "HgN/A
3:30 AM66 °FThundershowers. Passing clouds.5 mph56%30.04 "HgN/A
3:00 AM66 °FPassing clouds.9 mph56%30.07 "HgN/A
2:00 AM66 °FPassing clouds.9 mph56%30.07 "HgN/A
1:30 AM68 °FPassing clouds.7 mph53%30.07 "HgN/A
1:00 AM68 °FPassing clouds.14 mph49%30.07 "HgN/A
12:30 AM68 °FPassing clouds.5 mph49%30.07 "HgN/A
12:00 AM68 °FPassing clouds.7 mph53%30.07 "HgN/A
11:30 PM
Mon, Aug 31
68 °FPassing clouds.7 mph56%30.12 "HgN/A
11:00 PM66 °FPassing clouds.No wind68%30.12 "HgN/A
10:30 PM66 °FPassing clouds.No wind78%30.12 "HgN/A
10:00 PM68 °FPassing clouds.5 mph69%30.12 "HgN/A
9:30 PM68 °FPassing clouds.9 mph69%30.12 "HgN/A
9:00 PM68 °FScattered clouds.7 mph69%30.12 "HgN/A
8:30 PM68 °FScattered clouds.2 mph69%30.12 "HgN/A
8:00 PM68 °FScattered clouds.7 mph69%30.12 "HgN/A
7:30 PM70 °FBroken clouds.9 mph64%30.12 "HgN/A
7:00 PM70 °FBroken clouds.12 mph69%30.12 "HgN/A
6:30 PM70 °FBroken clouds.9 mph60%30.12 "HgN/A
6:00 PM68 °FThundershowers. Broken clouds.12 mph73%30.12 "HgN/A
5:30 PM68 °FThunderstorms. Partly sunny.16 mph60%30.12 "Hg4 mi
5:00 PM79 °FThunderstorms. Broken clouds.14 mph37%30.09 "HgN/A
Weather by CustomWeather, © 2015

See weather overviewHow to use our weather pages